Location: Dittelspoint
(48.7198°N, 10.7214°E)
Time: 23:27:15
(UTC+00:00)

COSMOS 2428 - Pass Details

Date: 09 April 2020
Orbit: 846 x 856 km, 70.9° (Epoch: 29 May)

Event Time Altitude Azimuth Distance (km) Brightness Sun altitude
Rises 22:55:29 0° 335° (NNW) 3,426 6.8 -33.0°
Reaches altitude 10° 22:58:14 10° 345° (NNW) 2,485 6.0 -33.1°
Maximum altitude 23:03:17 31° 48° (NE) 1,439 4.1 -33.2°
Enters shadow 23:03:39 31° 55° (NE) 1,446 4.1 -33.2°
